When you browse on this site, cookies collect data to enhance your experience and personalize the content and advertising you see.
Visit our Privacy Policy to learn more. By continuing to use the site, you agree to this use of cookies and data.
EN

Hourly Weather Kyzyltan

Today, 13 July, Monday

Time Temperature Precipitation Wind Pressure Humidity
00:00 +26°C° 0 mm 2 mps 690 mmHg 34%
01:00 +26°C° 0 mm 2 mps 690 mmHg 35%
02:00 +26°C° 0 mm 2 mps 689 mmHg 35%
03:00 +26°C° 0 mm 2 mps 689 mmHg 35%
04:00 +26°C° 0 mm 2 mps 689 mmHg 36%
05:00 +25°C° 0 mm 2 mps 689 mmHg 36%
06:00 +27°C° 0 mm 2 mps 689 mmHg 33%
07:00 +29°C° 0 mm 2 mps 690 mmHg 30%
08:00 +31°C° 0 mm 2 mps 691 mmHg 27%
09:00 +33°C° 0 mm 3 mps 691 mmHg 25%
10:00 +34°C° 0 mm 3 mps 691 mmHg 24%
11:00 +35°C° 0 mm 3 mps 691 mmHg 22%
12:00 +36°C° 0 mm 3 mps 691 mmHg 21%
13:00 +37°C° 0 mm 3 mps 690 mmHg 19%
14:00 +38°C° 0 mm 3 mps 690 mmHg 17%
15:00 +38°C° 0 mm 3 mps 690 mmHg 17%
16:00 +38°C° 0 mm 3 mps 690 mmHg 17%
17:00 +38°C° 0 mm 3 mps 690 mmHg 17%
18:00 +35°C° 0 mm 4 mps 690 mmHg 23%
19:00 +32°C° 0 mm 5 mps 689 mmHg 29%
20:00 +29°C° 0 mm 6 mps 689 mmHg 36%
21:00 +28°C° 0 mm 5 mps 689 mmHg 36%
22:00 +27°C° 0 mm 5 mps 688 mmHg 37%
23:00 +27°C° 0 mm 4 mps 688 mmHg 37%

Tomorrow, 14 July, Tuesday

Time Temperature Precipitation Wind Pressure Humidity
00:00 +27°C° 0 mm 4 mps 688 mmHg 37%
01:00 +27°C° 0 mm 4 mps 688 mmHg 36%
02:00 +27°C° 0 mm 3 mps 688 mmHg 36%
03:00 +26°C° 0 mm 3 mps 688 mmHg 35%
04:00 +26°C° 0 mm 3 mps 689 mmHg 35%
05:00 +26°C° 0 mm 3 mps 689 mmHg 35%
06:00 +29°C° 0 mm 2 mps 689 mmHg 30%
07:00 +31°C° 0 mm 2 mps 690 mmHg 26%
08:00 +33°C° 0 mm 1 mps 691 mmHg 22%
09:00 +36°C° 0 mm 2 mps 691 mmHg 20%
10:00 +37°C° 0 mm 3 mps 691 mmHg 18%
11:00 +38°C° 0 mm 3 mps 692 mmHg 16%
12:00 +39°C° 0 mm 3 mps 691 mmHg 16%
13:00 +39°C° 0 mm 3 mps 691 mmHg 15%
14:00 +40°C° 0 mm 3 mps 691 mmHg 14%
15:00 +40°C° 0 mm 4 mps 691 mmHg 17%
16:00 +37°C° 0 mm 5 mps 690 mmHg 20%
17:00 +36°C° 0 mm 7 mps 690 mmHg 23%
18:00 +34°C° 0 mm 6 mps 690 mmHg 27%
19:00 +32°C° 0 mm 5 mps 690 mmHg 31%
20:00 +29°C° 0 mm 4 mps 689 mmHg 35%
21:00 +28°C° 0 mm 4 mps 689 mmHg 36%
22:00 +28°C° 0 mm 4 mps 689 mmHg 36%
23:00 +27°C° 0 mm 4 mps 689 mmHg 37%

Day after tomorrow, 15 July, Wednesday

Time Temperature Precipitation Wind Pressure Humidity
00:00 +27°C° 0 mm 3 mps 689 mmHg 36%
01:00 +27°C° 0 mm 3 mps 689 mmHg 35%
02:00 +26°C° 0 mm 3 mps 689 mmHg 34%
03:00 +26°C° 0 mm 3 mps 689 mmHg 34%
04:00 +26°C° 0 mm 3 mps 689 mmHg 34%
05:00 +26°C° 0 mm 3 mps 689 mmHg 34%
06:00 +28°C° 0 mm 2 mps 690 mmHg 29%
07:00 +31°C° 0 mm 2 mps 691 mmHg 24%
08:00 +35°C° 0 mm 2 mps 691 mmHg 20%
09:00 +37°C° 0 mm 3 mps 691 mmHg 18%
10:00 +38°C° 0 mm 3 mps 691 mmHg 16%
11:00 +40°C° 0 mm 4 mps 692 mmHg 14%
12:00 +41°C° 0 mm 4 mps 691 mmHg 13%
13:00 +42°C° 0 mm 4 mps 691 mmHg 12%
14:00 +42°C° 0 mm 5 mps 691 mmHg 11%
15:00 +42°C° 0 mm 4 mps 691 mmHg 10%
16:00 +42°C° 0 mm 4 mps 691 mmHg 9%
17:00 +42°C° 0 mm 4 mps 691 mmHg 9%
18:00 +38°C° 0 mm 3 mps 690 mmHg 11%
19:00 +35°C° 0 mm 3 mps 690 mmHg 14%
20:00 +32°C° 0 mm 2 mps 690 mmHg 16%
21:00 +31°C° 0 mm 2 mps 690 mmHg 17%
22:00 +30°C° 0 mm 2 mps 690 mmHg 18%
23:00 +29°C° 0 mm 2 mps 689 mmHg 19%

16 July, Thursday

Time Temperature Precipitation Wind Pressure Humidity
00:00 +28°C° 0 mm 2 mps 689 mmHg 21%
01:00 +28°C° 0 mm 2 mps 689 mmHg 23%
02:00 +27°C° 0 mm 2 mps 689 mmHg 25%
03:00 +27°C° 0 mm 2 mps 689 mmHg 24%
04:00 +27°C° 0 mm 2 mps 689 mmHg 23%
05:00 +27°C° 0 mm 2 mps 689 mmHg 23%
06:00 +30°C° 0 mm 2 mps 689 mmHg 20%
07:00 +32°C° 0 mm 2 mps 690 mmHg 17%
08:00 +36°C° 0 mm 2 mps 690 mmHg 14%
09:00 +37°C° 0 mm 2 mps 690 mmHg 14%
10:00 +38°C° 0 mm 3 mps 690 mmHg 13%
11:00 +40°C° 0 mm 4 mps 690 mmHg 13%
12:00 +41°C° 0 mm 4 mps 690 mmHg 12%
13:00 +42°C° 0 mm 4 mps 690 mmHg 12%
14:00 +42°C° 0 mm 4 mps 689 mmHg 11%
15:00 +42°C° 0 mm 4 mps 689 mmHg 11%
16:00 +42°C° 0 mm 4 mps 689 mmHg 11%
17:00 +41°C° 0 mm 4 mps 689 mmHg 11%
18:00 +38°C° 0 mm 3 mps 689 mmHg 15%
19:00 +36°C° 0 mm 3 mps 689 mmHg 18%
20:00 +33°C° 0 mm 3 mps 689 mmHg 21%
21:00 +31°C° 0 mm 3 mps 689 mmHg 25%
22:00 +29°C° 0 mm 4 mps 688 mmHg 29%
23:00 +28°C° 0 mm 4 mps 688 mmHg 33%

17 July, Friday

Time Temperature Precipitation Wind Pressure Humidity
00:00 +28°C° 0 mm 4 mps 688 mmHg 32%
01:00 +28°C° 0 mm 4 mps 688 mmHg 31%
02:00 +28°C° 0 mm 3 mps 688 mmHg 30%
03:00 +28°C° 0.2 mm 4 mps 688 mmHg 32%
04:00 +27°C° 0.2 mm 4 mps 689 mmHg 35%
05:00 +27°C° 0.2 mm 5 mps 689 mmHg 38%
06:00 +29°C° 0.2 mm 4 mps 689 mmHg 34%
07:00 +32°C° 0.2 mm 4 mps 690 mmHg 30%
08:00 +34°C° 0.2 mm 4 mps 690 mmHg 26%
09:00 +35°C° 0 mm 3 mps 691 mmHg 23%
10:00 +37°C° 0 mm 3 mps 691 mmHg 19%
11:00 +39°C° 0 mm 2 mps 691 mmHg 15%
12:00 +39°C° 0 mm 3 mps 691 mmHg 15%
13:00 +40°C° 0 mm 3 mps 691 mmHg 14%
14:00 +41°C° 0 mm 4 mps 691 mmHg 13%
15:00 +40°C° 0.1 mm 4 mps 691 mmHg 15%
16:00 +39°C° 0.1 mm 5 mps 691 mmHg 16%
17:00 +37°C° 0.1 mm 5 mps 690 mmHg 18%
18:00 +36°C° 0 mm 4 mps 690 mmHg 21%
19:00 +34°C° 0 mm 4 mps 690 mmHg 24%
20:00 +31°C° 0 mm 3 mps 690 mmHg 26%
21:00 +30°C° 0 mm 3 mps 690 mmHg 28%
22:00 +29°C° 0 mm 3 mps 690 mmHg 30%
23:00 +28°C° 0 mm 3 mps 690 mmHg 32%

18 July, Saturday

Time Temperature Precipitation Wind Pressure Humidity
00:00 +27°C° 0 mm 3 mps 690 mmHg 32%
01:00 +27°C° 0 mm 3 mps 690 mmHg 31%
02:00 +27°C° 0 mm 3 mps 690 mmHg 31%
03:00 +27°C° 0 mm 3 mps 690 mmHg 31%
04:00 +27°C° 0 mm 3 mps 690 mmHg 30%
05:00 +26°C° 0 mm 3 mps 690 mmHg 30%
06:00 +29°C° 0 mm 2 mps 691 mmHg 26%
07:00 +31°C° 0 mm 2 mps 691 mmHg 22%
08:00 +34°C° 0 mm 2 mps 692 mmHg 19%
09:00 +36°C° 0 mm 2 mps 692 mmHg 16%
10:00 +37°C° 0 mm 3 mps 692 mmHg 14%
11:00 +39°C° 0 mm 3 mps 692 mmHg 12%
12:00 +40°C° 0 mm 4 mps 692 mmHg 11%
13:00 +41°C° 0 mm 4 mps 692 mmHg 10%
14:00 +42°C° 0 mm 4 mps 691 mmHg 9%
15:00 +42°C° 0 mm 4 mps 691 mmHg 9%
16:00 +42°C° 0 mm 3 mps 691 mmHg 9%
17:00 +42°C° 0 mm 3 mps 691 mmHg 8%
18:00 +38°C° 0 mm 3 mps 691 mmHg 10%
19:00 +36°C° 0 mm 3 mps 690 mmHg 12%
20:00 +32°C° 0 mm 2 mps 690 mmHg 14%
21:00 +31°C° 0 mm 2 mps 690 mmHg 15%
22:00 +30°C° 0 mm 2 mps 690 mmHg 16%
23:00 +29°C° 0 mm 2 mps 690 mmHg 17%
Show more